Wind From: 11-12-2017 12:03 Until: 12-12-2017 06:00 warning for: Wind Level: Orange info button

Power and phone distribution networks may be disrupted for relatively long periods., Roofs and chimneys can be damaged. , Tree branches may break. , Vehicles can be deported. , Traffic may be disrupted, particularly on secondary roads in forest areas. Limit your trips. , Limit your speed in highway driving, especially if you drive a vehicle or hitch sensitive to wind. , Do not go for walks in forests or along the coast., In town, be vigilant against possible falling objects., Do not work on roofs and do not touch any electrical line fallen on the ground., Store or secure sensitive objects to wind or likely to be damaged., Always install power generators outside buildings. 


Meteo18 Weather Cam more information Meteo18 Weather Cam


Thunder radar more information blitzortung!


Rain radar more information rain snow radar


Visit our other weather sites:

Template documentation
and downloads

And another site



Weather Underground History page Text

Daily Summary for March 24, 2016 Units:  Metric    English   Both
« Previous Day
Next Day »
Daily Weekly Monthly Yearly Custom
  High: Low: Average:
Temperature: 12.1 °C 4.9 °C 7.9 °C
Dew Point: 5.8 °C 2.3 °C 3.5 °C
Humidity: 89 % 54 % 75 %
Wind Speed: 8.0 km/h 0.0 km/h 1.1 km/h
Wind Gust: 14.5 km/h - -
Wind:- - SE
Pressure: 1017.8 hPa 1014.8 hPa -
Precipitation: 0.0 mm    
Historical Graphs
 
 
Tabular Data for March 24, 2016
Time Temperature Dew Point Pressure Wind Wind Speed Wind Gust Humidity Rainfall Rate (Hourly)
00:02 6.4 °C 3.6 °C 1014.8 hPa ENE 1.6 km/h 6.4 km/h 82 % 0.0 mm
00:07 6.3 °C 3.5 °C 1014.8 hPa Calm   6.4 km/h 82 % 0.0 mm
00:12 6.3 °C 3.5 °C 1015.1 hPa NE 1.6 km/h 6.4 km/h 82 % 0.0 mm
00:17 6.3 °C 3.5 °C 1014.8 hPa Calm   6.4 km/h 82 % 0.0 mm
00:22 6.4 °C 3.4 °C 1015.1 hPa NE 3.2 km/h 6.4 km/h 81 % 0.0 mm
00:27 6.4 °C 3.6 °C 1015.1 hPa NE 1.6 km/h 6.4 km/h 82 % 0.0 mm
00:32 6.4 °C 3.6 °C 1015.1 hPa Calm   8.0 km/h 82 % 0.0 mm
00:37 6.3 °C 3.5 °C 1015.1 hPa Calm   8.0 km/h 82 % 0.0 mm
00:42 6.2 °C 3.5 °C 1015.1 hPa Calm   4.8 km/h 83 % 0.0 mm
00:47 6.1 °C 3.4 °C 1015.1 hPa NE 1.6 km/h 4.8 km/h 83 % 0.0 mm
00:52 6.2 °C 3.5 °C 1015.1 hPa Calm   3.2 km/h 83 % 0.0 mm
00:57 6.3 °C 3.5 °C 1015.1 hPa NE 3.2 km/h 8.0 km/h 82 % 0.0 mm
01:02 6.4 °C 3.6 °C 1015.1 hPa NE 1.6 km/h 8.0 km/h 82 % 0.0 mm
01:07 6.4 °C 3.6 °C 1015.1 hPa ENE 3.2 km/h 8.0 km/h 82 % 0.0 mm
01:12 6.4 °C 3.6 °C 1015.1 hPa ENE 1.6 km/h 8.0 km/h 82 % 0.0 mm
01:17 6.4 °C 3.4 °C 1015.1 hPa Calm   4.8 km/h 81 % 0.0 mm
01:22 6.4 °C 3.6 °C 1015.1 hPa NE 3.2 km/h 4.8 km/h 82 % 0.0 mm
01:27 6.4 °C 3.6 °C 1015.1 hPa Calm   6.4 km/h 82 % 0.0 mm
01:32 6.2 °C 3.5 °C 1015.1 hPa Calm   6.4 km/h 83 % 0.0 mm
01:37 6.1 °C 3.4 °C 1015.1 hPa Calm   6.4 km/h 83 % 0.0 mm
01:42 6.1 °C 3.4 °C 1015.1 hPa NE 1.6 km/h 6.4 km/h 83 % 0.0 mm
01:47 5.9 °C 3.4 °C 1015.1 hPa Calm   4.8 km/h 84 % 0.0 mm
01:52 5.8 °C 3.3 °C 1015.1 hPa NE 3.2 km/h 4.8 km/h 84 % 0.0 mm
01:57 5.7 °C 3.2 °C 1015.1 hPa Calm   4.8 km/h 84 % 0.0 mm
02:02 5.7 °C 3.2 °C 1015.1 hPa Calm   4.8 km/h 84 % 0.0 mm
02:07 5.7 °C 3.2 °C 1015.1 hPa NE 1.6 km/h 4.8 km/h 84 % 0.0 mm
02:12 5.7 °C 3.2 °C 1015.1 hPa Calm   4.8 km/h 84 % 0.0 mm
02:17 5.8 °C 3.3 °C 1015.1 hPa Calm   4.8 km/h 84 % 0.0 mm
02:22 5.8 °C 3.3 °C 1015.1 hPa NE 1.6 km/h 4.8 km/h 84 % 0.0 mm
02:27 5.8 °C 3.3 °C 1015.1 hPa NE 3.2 km/h 3.2 km/h 84 % 0.0 mm
02:37 5.7 °C 3.2 °C 1015.1 hPa NE 1.6 km/h 4.8 km/h 84 % 0.0 mm
02:42 5.7 °C 3.2 °C 1015.1 hPa Calm   4.8 km/h 84 % 0.0 mm
02:47 5.6 °C 3.3 °C 1015.1 hPa Calm   4.8 km/h 85 % 0.0 mm
02:52 5.6 °C 3.3 °C 1015.1 hPa NE 3.2 km/h 4.8 km/h 85 % 0.0 mm
02:57 5.5 °C 3.2 °C 1015.1 hPa Calm   4.8 km/h 85 % 0.0 mm
03:02 5.4 °C 3.1 °C 1015.1 hPa NE 3.2 km/h 4.8 km/h 85 % 0.0 mm
03:07 5.4 °C 3.1 °C 1014.8 hPa Calm   4.8 km/h 85 % 0.0 mm
03:12 5.3 °C 3.1 °C 1014.8 hPa NE 1.6 km/h 4.8 km/h 86 % 0.0 mm
03:17 5.3 °C 3.1 °C 1014.8 hPa Calm   4.8 km/h 86 % 0.0 mm
03:22 5.3 °C 3.1 °C 1015.1 hPa Calm   4.8 km/h 86 % 0.0 mm
03:27 5.3 °C 3.1 °C 1015.1 hPa ENE 1.6 km/h 3.2 km/h 86 % 0.0 mm
03:32 5.3 °C 3.1 °C 1015.1 hPa Calm   3.2 km/h 86 % 0.0 mm
03:37 5.3 °C 3.1 °C 1015.1 hPa NE 1.6 km/h 3.2 km/h 86 % 0.0 mm
03:42 5.3 °C 3.1 °C 1015.1 hPa Calm   3.2 km/h 86 % 0.0 mm
03:47 5.3 °C 3.1 °C 1015.1 hPa Calm   4.8 km/h 86 % 0.0 mm
03:52 5.3 °C 3.1 °C 1015.1 hPa Calm   4.8 km/h 86 % 0.0 mm
03:57 5.3 °C 3.3 °C 1014.8 hPa NE 1.6 km/h 1.6 km/h 87 % 0.0 mm
04:02 5.3 °C 3.3 °C 1014.8 hPa Calm   1.6 km/h 87 % 0.0 mm
04:07 5.3 °C 3.3 °C 1014.8 hPa Calm   1.6 km/h 87 % 0.0 mm
04:12 5.3 °C 3.3 °C 1014.8 hPa Calm   1.6 km/h 87 % 0.0 mm
04:17 5.3 °C 3.1 °C 1014.8 hPa Calm   1.6 km/h 86 % 0.0 mm
04:22 5.3 °C 3.1 °C 1015.1 hPa Calm   1.6 km/h 86 % 0.0 mm
04:27 5.3 °C 3.1 °C 1015.1 hPa Calm   3.2 km/h 86 % 0.0 mm
04:32 5.3 °C 3.3 °C 1015.1 hPa Calm   3.2 km/h 87 % 0.0 mm
04:37 5.2 °C 3.2 °C 1015.1 hPa Calm   1.6 km/h 87 % 0.0 mm
04:42 5.2 °C 3.2 °C 1015.1 hPa Calm   1.6 km/h 87 % 0.0 mm
04:47 5.2 °C 3.2 °C 1015.5 hPa Calm   1.6 km/h 87 % 0.0 mm
04:52 5.1 °C 3.1 °C 1015.5 hPa Calm   1.6 km/h 87 % 0.0 mm
05:02 5.1 °C 3.3 °C 1015.5 hPa Calm   1.6 km/h 88 % 0.0 mm
05:07 5.1 °C 3.3 °C 1015.5 hPa Calm   1.6 km/h 88 % 0.0 mm
05:12 5.0 °C 3.2 °C 1015.5 hPa Calm   1.6 km/h 88 % 0.0 mm
05:17 5.0 °C 3.2 °C 1015.5 hPa Calm     88 % 0.0 mm
05:22 4.9 °C 3.1 °C 1015.5 hPa Calm     88 % 0.0 mm
05:27 4.9 °C 3.1 °C 1015.5 hPa Calm     88 % 0.0 mm
05:32 4.9 °C 3.2 °C 1015.5 hPa Calm     89 % 0.0 mm
05:37 4.9 °C 3.2 °C 1015.5 hPa Calm     89 % 0.0 mm
05:42 4.9 °C 3.2 °C 1015.5 hPa Calm     89 % 0.0 mm
05:47 4.9 °C 3.2 °C 1015.5 hPa Calm     89 % 0.0 mm
05:52 4.9 °C 3.2 °C 1015.5 hPa Calm     89 % 0.0 mm
05:57 5.0 °C 3.3 °C 1015.5 hPa Calm     89 % 0.0 mm
06:02 5.0 °C 3.2 °C 1015.5 hPa Calm     88 % 0.0 mm
06:12 4.9 °C 3.1 °C 1015.8 hPa Calm     88 % 0.0 mm
06:22 5.1 °C 3.3 °C 1015.8 hPa Calm     88 % 0.0 mm
06:32 5.1 °C 3.3 °C 1015.8 hPa Calm   1.6 km/h 88 % 0.0 mm
06:37 5.1 °C 3.3 °C 1015.8 hPa Calm   3.2 km/h 88 % 0.0 mm
06:42 5.1 °C 3.3 °C 1015.8 hPa Calm   3.2 km/h 88 % 0.0 mm
06:47 5.0 °C 3.3 °C 1015.8 hPa Calm   1.6 km/h 89 % 0.0 mm
06:52 4.9 °C 3.2 °C 1015.8 hPa Calm   1.6 km/h 89 % 0.0 mm
06:57 5.0 °C 3.3 °C 1015.8 hPa Calm   1.6 km/h 89 % 0.0 mm
07:02 5.1 °C 3.4 °C 1015.8 hPa Calm   1.6 km/h 89 % 0.0 mm
07:12 5.2 °C 3.4 °C 1016.1 hPa Calm   1.6 km/h 88 % 0.0 mm
07:17 5.3 °C 3.5 °C 1016.1 hPa Calm   1.6 km/h 88 % 0.0 mm
07:22 5.3 °C 3.5 °C 1016.1 hPa Calm   1.6 km/h 88 % 0.0 mm
07:32 5.4 °C 3.6 °C 1016.5 hPa Calm   1.6 km/h 88 % 0.0 mm
07:37 5.5 °C 3.5 °C 1016.5 hPa Calm   1.6 km/h 87 % 0.0 mm
07:42 5.6 °C 3.6 °C 1016.8 hPa NE 1.6 km/h 1.6 km/h 87 % 0.0 mm
07:47 5.7 °C 3.7 °C 1016.8 hPa ENE 1.6 km/h 3.2 km/h 87 % 0.0 mm
07:52 5.8 °C 3.6 °C 1016.8 hPa NE 1.6 km/h 3.2 km/h 86 % 0.0 mm
07:57 5.8 °C 3.6 °C 1016.8 hPa Calm   4.8 km/h 86 % 0.0 mm
08:02 5.9 °C 3.7 °C 1016.8 hPa NE 1.6 km/h 4.8 km/h 86 % 0.0 mm
08:07 5.9 °C 3.7 °C 1016.8 hPa NE 1.6 km/h 3.2 km/h 86 % 0.0 mm
08:12 6.0 °C 3.8 °C 1016.8 hPa Calm   3.2 km/h 86 % 0.0 mm
08:17 6.1 °C 3.9 °C 1016.8 hPa Calm   3.2 km/h 86 % 0.0 mm
08:22 6.2 °C 4.0 °C 1016.8 hPa ENE 3.2 km/h 3.2 km/h 86 % 0.0 mm
08:27 6.3 °C 4.1 °C 1016.8 hPa Calm   4.8 km/h 86 % 0.0 mm
08:32 6.3 °C 4.0 °C 1016.8 hPa NE 1.6 km/h 4.8 km/h 85 % 0.0 mm
08:37 6.4 °C 4.1 °C 1016.8 hPa ENE 1.6 km/h 4.8 km/h 85 % 0.0 mm
08:42 6.6 °C 4.3 °C 1016.8 hPa ENE 1.6 km/h 4.8 km/h 85 % 0.0 mm
08:47 6.7 °C 4.4 °C 1017.2 hPa NE 3.2 km/h 4.8 km/h 85 % 0.0 mm
08:52 6.8 °C 4.3 °C 1017.2 hPa NE 1.6 km/h 4.8 km/h 84 % 0.0 mm
08:57 6.9 °C 4.4 °C 1017.2 hPa NE 1.6 km/h 4.8 km/h 84 % 0.0 mm
09:02 6.9 °C 4.4 °C 1017.2 hPa NE 3.2 km/h 4.8 km/h 84 % 0.0 mm
09:07 6.9 °C 4.4 °C 1017.2 hPa ENE 3.2 km/h 4.8 km/h 84 % 0.0 mm
09:12 7.0 °C 4.5 °C 1017.2 hPa NE 3.2 km/h 4.8 km/h 84 % 0.0 mm
09:17 7.0 °C 4.5 °C 1017.2 hPa ENE 3.2 km/h 9.7 km/h 84 % 0.0 mm
09:22 7.1 °C 4.4 °C 1017.2 hPa ENE 1.6 km/h 9.7 km/h 83 % 0.0 mm
09:27 7.2 °C 4.7 °C 1017.2 hPa NE 1.6 km/h 9.7 km/h 84 % 0.0 mm
09:32 7.2 °C 4.5 °C 1017.2 hPa ENE 1.6 km/h 9.7 km/h 83 % 0.0 mm
09:37 7.2 °C 4.5 °C 1017.2 hPa Calm   4.8 km/h 83 % 0.0 mm
09:42 7.3 °C 4.4 °C 1017.5 hPa NE 3.2 km/h 4.8 km/h 82 % 0.0 mm
09:47 7.3 °C 4.6 °C 1017.5 hPa ENE 3.2 km/h 6.4 km/h 83 % 0.0 mm
09:52 7.4 °C 4.7 °C 1017.5 hPa ENE 1.6 km/h 6.4 km/h 83 % 0.0 mm
09:57 7.4 °C 4.5 °C 1017.5 hPa ENE 1.6 km/h 4.8 km/h 82 % 0.0 mm
10:02 7.5 °C 4.6 °C 1017.5 hPa Calm   4.8 km/h 82 % 0.0 mm
10:12 7.6 °C 4.5 °C 1017.8 hPa Calm   4.8 km/h 81 % 0.0 mm
10:17 7.7 °C 4.8 °C 1017.5 hPa Calm   4.8 km/h 82 % 0.0 mm
10:27 8.0 °C 4.8 °C 1017.5 hPa Calm   4.8 km/h 80 % 0.0 mm
10:32 8.1 °C 4.9 °C 1017.5 hPa Calm   4.8 km/h 80 % 0.0 mm
10:37 8.3 °C 5.1 °C 1017.5 hPa Calm   3.2 km/h 80 % 0.0 mm
10:42 8.5 °C 4.9 °C 1017.5 hPa Calm   3.2 km/h 78 % 0.0 mm
10:47 8.7 °C 5.3 °C 1017.8 hPa Calm   3.2 km/h 79 % 0.0 mm
10:57 8.8 °C 5.4 °C 1017.8 hPa Calm   3.2 km/h 79 % 0.0 mm
11:02 8.8 °C 5.4 °C 1017.8 hPa Calm   3.2 km/h 79 % 0.0 mm
11:12 9.1 °C 5.7 °C 1017.8 hPa ESE 1.6 km/h 3.2 km/h 79 % 0.0 mm
11:17 9.1 °C 5.5 °C 1017.8 hPa SE 1.6 km/h 4.8 km/h 78 % 0.0 mm
11:22 9.2 °C 5.2 °C 1017.8 hPa NE 3.2 km/h 4.8 km/h 76 % 0.0 mm
11:27 9.3 °C 5.3 °C 1017.8 hPa ENE 1.6 km/h 6.4 km/h 76 % 0.0 mm
11:32 9.6 °C 5.8 °C 1017.8 hPa ENE 1.6 km/h 6.4 km/h 77 % 0.0 mm
11:37 9.6 °C 5.0 °C 1017.5 hPa ENE 3.2 km/h 8.0 km/h 73 % 0.0 mm
11:42 9.8 °C 5.2 °C 1017.5 hPa NE 1.6 km/h 8.0 km/h 73 % 0.0 mm
11:47 10.0 °C 5.8 °C 1017.5 hPa NE 4.8 km/h 8.0 km/h 75 % 0.0 mm
11:52 10.1 °C 5.5 °C 1017.5 hPa NE 6.4 km/h 8.0 km/h 73 % 0.0 mm
11:57 9.8 °C 4.4 °C 1017.5 hPa Calm   6.4 km/h 69 % 0.0 mm
12:02 9.8 °C 4.8 °C 1017.5 hPa NE 1.6 km/h 6.4 km/h 71 % 0.0 mm
12:07 9.9 °C 4.5 °C 1017.5 hPa Calm   6.4 km/h 69 % 0.0 mm
12:12 9.8 °C 4.0 °C 1017.5 hPa ENE 1.6 km/h 6.4 km/h 67 % 0.0 mm
12:17 9.6 °C 4.0 °C 1017.5 hPa ENE 4.8 km/h 6.4 km/h 68 % 0.0 mm
12:22 9.7 °C 4.1 °C 1017.5 hPa Calm   8.0 km/h 68 % 0.0 mm
12:27 9.8 °C 4.0 °C 1017.5 hPa Calm   8.0 km/h 67 % 0.0 mm
12:32 9.9 °C 3.2 °C 1017.5 hPa Calm   8.0 km/h 63 % 0.0 mm
12:37 10.0 °C 3.1 °C 1017.5 hPa Calm   8.0 km/h 62 % 0.0 mm
12:42 10.1 °C 3.8 °C 1017.5 hPa ENE 4.8 km/h 8.0 km/h 65 % 0.0 mm
12:47 10.3 °C 3.1 °C 1017.5 hPa Calm   8.0 km/h 61 % 0.0 mm
12:52 10.5 °C 3.3 °C 1017.5 hPa Calm   6.4 km/h 61 % 0.0 mm
12:57 10.8 °C 3.6 °C 1017.8 hPa SW 3.2 km/h 8.0 km/h 61 % 0.0 mm
13:02 11.1 °C 3.1 °C 1017.8 hPa NE 3.2 km/h 8.0 km/h 58 % 0.0 mm
13:07 11.1 °C 3.6 °C 1017.5 hPa NE 3.2 km/h 6.4 km/h 60 % 0.0 mm
13:12 11.1 °C 3.6 °C 1017.5 hPa ENE 3.2 km/h 6.4 km/h 60 % 0.0 mm
13:17 10.8 °C 2.9 °C 1017.5 hPa Calm   6.4 km/h 58 % 0.0 mm
13:22 11.1 °C 3.4 °C 1017.5 hPa Calm   6.4 km/h 59 % 0.0 mm
13:27 11.3 °C 3.3 °C 1017.5 hPa SW 1.6 km/h 6.4 km/h 58 % 0.0 mm
13:32 11.5 °C 3.3 °C 1017.5 hPa SSW 1.6 km/h 6.4 km/h 57 % 0.0 mm
13:37 11.4 °C 2.7 °C 1017.5 hPa SW 1.6 km/h 6.4 km/h 55 % 0.0 mm
13:42 11.3 °C 3.1 °C 1017.5 hPa Calm   6.4 km/h 57 % 0.0 mm
13:47 11.4 °C 3.7 °C 1017.5 hPa Calm   8.0 km/h 59 % 0.0 mm
13:52 11.4 °C 3.2 °C 1017.5 hPa Calm   8.0 km/h 57 % 0.0 mm
13:57 11.6 °C 3.6 °C 1017.5 hPa Calm   8.0 km/h 58 % 0.0 mm
14:02 11.4 °C 2.7 °C 1017.5 hPa Calm   8.0 km/h 55 % 0.0 mm
14:07 11.6 °C 3.4 °C 1017.5 hPa Calm   4.8 km/h 57 % 0.0 mm
14:12 11.8 °C 3.0 °C 1017.5 hPa SW 3.2 km/h 4.8 km/h 55 % 0.0 mm
14:17 11.6 °C 3.1 °C 1017.5 hPa Calm   4.8 km/h 56 % 0.0 mm
14:22 11.5 °C 2.5 °C 1017.5 hPa Calm   4.8 km/h 54 % 0.0 mm
14:27 11.5 °C 3.0 °C 1017.5 hPa Calm   4.8 km/h 56 % 0.0 mm
14:32 11.6 °C 3.1 °C 1017.2 hPa East 1.6 km/h 4.8 km/h 56 % 0.0 mm
14:37 11.3 °C 3.3 °C 1017.2 hPa Calm   4.8 km/h 58 % 0.0 mm
14:42 11.3 °C 2.8 °C 1017.2 hPa Calm   4.8 km/h 56 % 0.0 mm
14:47 11.4 °C 2.9 °C 1017.2 hPa Calm   4.8 km/h 56 % 0.0 mm
14:52 11.6 °C 3.6 °C 1017.2 hPa NE 1.6 km/h 4.8 km/h 58 % 0.0 mm
14:57 11.6 °C 2.6 °C 1017.2 hPa Calm   3.2 km/h 54 % 0.0 mm
15:02 11.7 °C 3.5 °C 1017.2 hPa SW 3.2 km/h 3.2 km/h 57 % 0.0 mm
15:07 11.7 °C 3.0 °C 1017.2 hPa WSW 3.2 km/h 4.8 km/h 55 % 0.0 mm
15:12 11.9 °C 2.9 °C 1016.8 hPa Calm   4.8 km/h 54 % 0.0 mm
15:17 11.9 °C 3.1 °C 1016.8 hPa Calm   4.8 km/h 55 % 0.0 mm
15:22 12.0 °C 3.2 °C 1016.8 hPa Calm   4.8 km/h 55 % 0.0 mm
15:27 12.1 °C 3.1 °C 1016.8 hPa Calm   4.8 km/h 54 % 0.0 mm
15:32 12.1 °C 3.3 °C 1016.8 hPa SW 3.2 km/h 4.8 km/h 55 % 0.0 mm
15:37 12.0 °C 4.0 °C 1016.8 hPa West 3.2 km/h 4.8 km/h 58 % 0.0 mm
15:42 11.9 °C 4.1 °C 1016.5 hPa West 1.6 km/h 4.8 km/h 59 % 0.0 mm
15:47 11.9 °C 3.1 °C 1016.8 hPa SW 3.2 km/h 6.4 km/h 55 % 0.0 mm
15:57 11.9 °C 3.9 °C 1016.5 hPa SW 1.6 km/h 9.7 km/h 58 % 0.0 mm
16:02 11.9 °C 3.9 °C 1016.5 hPa Calm   9.7 km/h 58 % 0.0 mm
16:07 11.9 °C 3.6 °C 1016.5 hPa SW 4.8 km/h 9.7 km/h 57 % 0.0 mm
16:12 11.8 °C 3.8 °C 1016.8 hPa SW 3.2 km/h 9.7 km/h 58 % 0.0 mm
16:17 11.7 °C 4.0 °C 1016.8 hPa SW 1.6 km/h 8.0 km/h 59 % 0.0 mm
16:22 11.6 °C 3.6 °C 1016.5 hPa SW 1.6 km/h 8.0 km/h 58 % 0.0 mm
16:27 11.6 °C 3.4 °C 1016.8 hPa SSW 6.4 km/h 8.0 km/h 57 % 0.0 mm
16:32 11.4 °C 3.2 °C 1016.5 hPa WSW 8.0 km/h 8.0 km/h 57 % 0.0 mm
16:37 11.4 °C 3.2 °C 1016.5 hPa WSW 3.2 km/h 9.7 km/h 57 % 0.0 mm
16:42 11.4 °C 3.4 °C 1016.5 hPa WSW 3.2 km/h 9.7 km/h 58 % 0.0 mm
16:47 11.3 °C 3.8 °C 1016.5 hPa SSW 3.2 km/h 9.7 km/h 60 % 0.0 mm
16:52 11.1 °C 3.4 °C 1016.5 hPa WSW 3.2 km/h 9.7 km/h 59 % 0.0 mm
16:57 11.1 °C 3.6 °C 1016.8 hPa WSW 4.8 km/h 9.7 km/h 60 % 0.0 mm
17:02 11.1 °C 3.6 °C 1016.8 hPa SW 1.6 km/h 9.7 km/h 60 % 0.0 mm
17:12 11.1 °C 3.6 °C 1016.8 hPa SW 8.0 km/h 9.7 km/h 60 % 0.0 mm
17:17 11.1 °C 3.4 °C 1016.8 hPa WSW 3.2 km/h 9.7 km/h 59 % 0.0 mm
17:22 11.0 °C 3.3 °C 1016.5 hPa WSW 4.8 km/h 9.7 km/h 59 % 0.0 mm
17:27 10.9 °C 3.4 °C 1016.8 hPa SSW 3.2 km/h 14.5 km/h 60 % 0.0 mm
17:37 10.7 °C 3.7 °C 1016.5 hPa SW 6.4 km/h 14.5 km/h 62 % 0.0 mm
17:42 10.7 °C 3.5 °C 1016.5 hPa WSW 1.6 km/h 14.5 km/h 61 % 0.0 mm
17:47 10.7 °C 3.5 °C 1016.5 hPa SW 4.8 km/h 9.7 km/h 61 % 0.0 mm
17:52 10.6 °C 3.4 °C 1016.5 hPa SW 4.8 km/h 9.7 km/h 61 % 0.0 mm
17:57 10.6 °C 3.4 °C 1016.8 hPa SW 1.6 km/h 9.7 km/h 61 % 0.0 mm
18:02 10.6 °C 3.4 °C 1016.8 hPa WSW 1.6 km/h 9.7 km/h 61 % 0.0 mm
18:07 10.4 °C 3.2 °C 1016.8 hPa WSW 3.2 km/h 9.7 km/h 61 % 0.0 mm
18:12 10.4 °C 3.2 °C 1016.8 hPa SW 4.8 km/h 9.7 km/h 61 % 0.0 mm
18:17 10.3 °C 3.3 °C 1016.8 hPa SW 3.2 km/h 9.7 km/h 62 % 0.0 mm
18:22 10.3 °C 3.3 °C 1016.8 hPa SW 1.6 km/h 9.7 km/h 62 % 0.0 mm
18:27 10.2 °C 3.2 °C 1017.2 hPa SW 3.2 km/h 9.7 km/h 62 % 0.0 mm
18:32 10.1 °C 3.1 °C 1017.2 hPa WNW 1.6 km/h 9.7 km/h 62 % 0.0 mm
18:37 10.1 °C 3.4 °C 1017.2 hPa SW 4.8 km/h 9.7 km/h 63 % 0.0 mm
18:42 9.9 °C 3.2 °C 1017.2 hPa WSW 3.2 km/h 8.0 km/h 63 % 0.0 mm
18:47 9.9 °C 3.4 °C 1017.2 hPa SW 3.2 km/h 8.0 km/h 64 % 0.0 mm
18:52 9.8 °C 3.1 °C 1017.2 hPa SW 3.2 km/h 6.4 km/h 63 % 0.0 mm
18:57 9.7 °C 3.2 °C 1017.2 hPa SW 3.2 km/h 9.7 km/h 64 % 0.0 mm
19:07 9.4 °C 2.9 °C 1017.2 hPa Calm   8.0 km/h 64 % 0.0 mm
19:12 9.2 °C 3.0 °C 1017.2 hPa WSW 3.2 km/h 8.0 km/h 65 % 0.0 mm
19:22 8.9 °C 3.1 °C 1017.5 hPa Calm   6.4 km/h 67 % 0.0 mm
19:27 8.8 °C 3.0 °C 1017.5 hPa Calm   4.8 km/h 67 % 0.0 mm
19:32 8.7 °C 3.1 °C 1017.2 hPa Calm   4.8 km/h 68 % 0.0 mm
19:37 8.6 °C 3.2 °C 1017.5 hPa Calm   4.8 km/h 69 % 0.0 mm
19:42 8.5 °C 3.1 °C 1017.5 hPa Calm   4.8 km/h 69 % 0.0 mm
19:47 8.3 °C 3.1 °C 1017.5 hPa Calm   4.8 km/h 70 % 0.0 mm
19:52 8.2 °C 3.3 °C 1017.5 hPa Calm   4.8 km/h 71 % 0.0 mm
19:57 8.2 °C 3.3 °C 1017.5 hPa Calm   1.6 km/h 71 % 0.0 mm
20:02 8.1 °C 3.4 °C 1017.5 hPa Calm   1.6 km/h 72 % 0.0 mm
20:07 8.1 °C 3.4 °C 1017.5 hPa Calm     72 % 0.0 mm
20:12 8.0 °C 3.3 °C 1017.5 hPa Calm     72 % 0.0 mm
20:17 8.1 °C 3.4 °C 1017.5 hPa Calm     72 % 0.0 mm
20:22 8.1 °C 3.4 °C 1017.8 hPa Calm     72 % 0.0 mm
20:32 8.2 °C 3.3 °C 1017.8 hPa Calm   1.6 km/h 71 % 0.0 mm
20:42 8.2 °C 3.5 °C 1017.8 hPa Calm   1.6 km/h 72 % 0.0 mm
20:47 8.1 °C 3.6 °C 1017.8 hPa Calm   1.6 km/h 73 % 0.0 mm
20:52 8.0 °C 3.3 °C 1017.8 hPa Calm   1.6 km/h 72 % 0.0 mm
20:57 8.0 °C 3.3 °C 1017.5 hPa Calm   1.6 km/h 72 % 0.0 mm
21:02 8.0 °C 3.5 °C 1017.5 hPa Calm   1.6 km/h 73 % 0.0 mm
21:07 8.0 °C 3.5 °C 1017.5 hPa Calm   1.6 km/h 73 % 0.0 mm
21:12 8.1 °C 3.6 °C 1017.5 hPa Calm   1.6 km/h 73 % 0.0 mm
21:17 8.0 °C 3.6 °C 1017.8 hPa Calm   1.6 km/h 74 % 0.0 mm
21:27 7.9 °C 3.6 °C 1017.5 hPa Calm     74 % 0.0 mm
21:32 7.8 °C 3.5 °C 1017.5 hPa Calm     74 % 0.0 mm
21:37 7.7 °C 3.5 °C 1017.5 hPa Calm     75 % 0.0 mm
21:42 7.6 °C 3.5 °C 1017.5 hPa Calm     75 % 0.0 mm
21:47 7.5 °C 3.5 °C 1017.5 hPa Calm     76 % 0.0 mm
21:52 7.3 °C 3.5 °C 1017.5 hPa Calm     77 % 0.0 mm
21:57 7.2 °C 3.4 °C 1017.2 hPa Calm     77 % 0.0 mm
22:02 7.1 °C 3.3 °C 1017.2 hPa Calm     77 % 0.0 mm
22:07 6.9 °C 3.3 °C 1017.2 hPa Calm     78 % 0.0 mm
22:12 6.8 °C 3.6 °C 1017.2 hPa Calm     80 % 0.0 mm
22:17 6.7 °C 3.5 °C 1017.2 hPa Calm     80 % 0.0 mm
22:22 6.5 °C 3.3 °C 1017.2 hPa Calm     80 % 0.0 mm
22:32 6.1 °C 3.1 °C 1017.2 hPa Calm     81 % 0.0 mm
22:37 5.8 °C 2.8 °C 1017.2 hPa Calm     81 % 0.0 mm
22:42 5.6 °C 2.6 °C 1017.2 hPa Calm     81 % 0.0 mm
22:47 5.3 °C 2.5 °C 1017.2 hPa Calm     82 % 0.0 mm
22:52 5.1 °C 2.3 °C 1017.2 hPa Calm     82 % 0.0 mm
22:57 5.0 °C 2.5 °C 1017.2 hPa Calm     84 % 0.0 mm
23:02 5.1 °C 3.0 °C 1017.2 hPa Calm     86 % 0.0 mm
23:12 5.0 °C 2.9 °C 1016.8 hPa Calm     86 % 0.0 mm
23:17 5.0 °C 2.9 °C 1016.8 hPa Calm     86 % 0.0 mm
23:22 4.9 °C 2.8 °C 1016.8 hPa Calm     86 % 0.0 mm
23:27 5.1 °C 3.1 °C 1016.8 hPa Calm     87 % 0.0 mm
23:32 5.2 °C 3.1 °C 1016.8 hPa Calm     86 % 0.0 mm
23:37 5.4 °C 3.2 °C 1016.8 hPa Calm     86 % 0.0 mm
23:42 5.4 °C 3.2 °C 1016.8 hPa Calm     86 % 0.0 mm
23:47 5.5 °C 3.3 °C 1016.8 hPa Calm     86 % 0.0 mm
23:52 5.5 °C 3.5 °C 1016.8 hPa Calm     87 % 0.0 mm
23:57 5.6 °C 3.6 °C 1016.8 hPa Calm     87 % 0.0 mm
Meteo18
Compliments of Weather Underground - 4 mb

Script developed by  Jim McMurry - jmcmurry@mwt.net Adapted for the template by  Wim van der Kuil - Leuven-Template.eu

You find our weather info also at:

European Weather Network

Weather Underground

Equipment we use:

Weather-station
Davis Vue

Weather-program
Meteohub

Weather-server
Raspberry PI 2 B+

Provider
1 and 1

Davis Vue

Meteohub

Raspberry PI 2 B+

1 and 1